Date String (YYYY-MM-DD hh:mm:ss) UTC,Instrument flags,Ambient pressure (hPa),Sample flow (lpm),Bypass flow (lpm),Sample temperature (°C),Ambient temperature (°C),ASC tube jacket temperature (°C),LED temperature (°C),Box temperature (°C),Sample RH (%),Span deviation,Mass concentration (μg/m³),Mass concentration (μg/m³),Mass concentration (μg/m³)
DateTimeUTC,F1_M11,P_M11,Q1_M11,Q2_M11,T1_M11,T2_M11,T3_M11,T4_M11,T5_M11,U1_M11,ZSPAN_M11,X0_M11,X2_M11,X1_M11
2021-12-18 02:00:00,,0826.5,5.00,0.00,21.4,21.1,00.0,30.6,23.0,06.7,0000.0,0001.52,0000.48,0000.31
2021-12-18 02:01:00,,0826.5,5.01,0.00,21.6,22.0,00.0,30.7,23.4,06.6,0000.0,0001.47,0000.46,0000.31
2021-12-18 02:02:00,,0826.4,4.99,0.00,21.8,22.8,00.0,30.7,23.7,06.5,0000.0,0001.40,0000.43,0000.30
2021-12-18 02:03:00,,0826.3,5.01,0.00,21.9,23.1,00.0,30.8,23.9,06.2,0000.0,0001.27,0000.43,0000.30
2021-12-18 02:04:00,,0826.3,5.01,0.00,21.9,22.7,00.0,30.8,23.7,06.0,0000.0,0000.77,0000.41,0000.31
2021-12-18 02:05:00,,0826.3,4.99,0.00,21.9,22.2,00.0,30.8,23.6,06.0,0000.0,0000.75,0000.40,0000.31
2021-12-18 02:06:00,,0826.5,5.01,0.00,21.8,21.8,00.0,30.8,23.4,06.0,0000.0,0000.83,0000.39,0000.31
2021-12-18 02:07:00,,0826.5,4.99,0.00,21.8,21.5,00.0,30.8,23.3,06.1,0000.0,0000.71,0000.41,0000.31
2021-12-18 02:08:00,,0826.5,5.00,0.00,21.7,21.3,00.0,30.8,23.2,06.2,0000.0,0000.66,0000.39,0000.31
2021-12-18 02:09:00,,0826.7,4.99,0.00,21.7,21.1,00.0,30.8,23.2,06.3,0000.0,0000.64,0000.39,0000.31
2021-12-18 02:10:00,,0826.6,5.00,0.00,21.6,21.0,00.0,30.7,23.1,06.3,0000.0,0000.65,0000.39,0000.31
2021-12-18 02:11:00,,0826.4,4.98,0.00,21.6,20.9,00.0,30.7,23.1,06.2,0000.0,0000.69,0000.40,0000.31
2021-12-18 02:12:00,,0826.5,5.03,0.00,21.5,20.8,00.0,30.7,23.0,06.0,0000.0,0000.80,0000.44,0000.32
2021-12-18 02:13:00,,0826.5,4.99,0.00,21.5,20.7,00.0,30.7,23.0,06.0,0000.0,0000.86,0000.46,0000.32
2021-12-18 02:14:00,,0826.4,5.01,0.00,21.5,20.6,00.0,30.7,23.0,06.0,0000.0,0000.97,0000.49,0000.32
2021-12-18 02:15:00,,0826.4,5.00,0.00,21.5,21.1,00.0,30.7,23.1,05.9,0000.0,0001.06,0000.51,0000.33
2021-12-18 02:16:00,,0826.5,5.00,0.00,21.6,21.9,00.0,30.7,23.4,05.9,0000.0,0001.07,0000.52,0000.33
2021-12-18 02:17:00,,0826.5,4.99,0.00,21.8,22.7,00.0,30.8,23.8,05.8,0000.0,0001.77,0000.53,0000.33
2021-12-18 02:18:00,,0826.4,5.00,0.00,21.9,22.8,00.0,30.8,23.9,05.8,0000.0,0001.86,0000.54,0000.34
2021-12-18 02:19:00,,0826.4,5.00,0.00,21.9,22.4,00.0,30.8,23.7,05.7,0000.0,0001.92,0000.57,0000.34
2021-12-18 02:20:00,,0826.5,5.00,0.00,21.9,22.0,00.0,30.8,23.6,05.7,0000.0,0001.90,0000.57,0000.35
2021-12-18 02:21:00,,0826.4,5.01,0.00,21.8,21.7,00.0,30.8,23.5,05.7,0000.0,0002.00,0000.58,0000.35
2021-12-18 02:22:00,,0826.4,5.00,0.00,21.8,21.5,00.0,30.8,23.3,05.7,0000.0,0002.00,0000.58,0000.36
2021-12-18 02:23:00,,0826.5,5.01,0.00,21.7,21.2,00.0,30.8,23.2,05.6,0000.0,0001.92,0000.56,0000.36
2021-12-18 02:24:00,,0826.4,5.01,0.00,21.7,21.1,00.0,30.8,23.2,05.7,0000.0,0002.09,0000.56,0000.37
2021-12-18 02:25:00,,0826.5,4.99,0.00,21.6,20.9,00.0,30.7,23.1,05.6,0000.0,0002.16,0000.58,0000.38
2021-12-18 02:26:00,,0826.5,4.99,0.00,21.6,20.7,00.0,30.7,23.1,05.7,0000.0,0002.13,0000.57,0000.38
2021-12-18 02:27:00,,0826.5,4.99,0.00,21.5,20.7,00.0,30.7,22.9,05.7,0000.0,0002.27,0000.62,0000.38
2021-12-18 02:28:00,,0826.6,5.00,0.00,21.5,21.4,00.0,30.7,23.1,05.7,0000.0,0001.50,0000.62,0000.39
2021-12-18 02:29:00,,0826.6,5.01,0.00,21.7,22.2,00.0,30.7,23.5,05.7,0000.0,0001.44,0000.60,0000.38
2021-12-18 02:30:00,,0826.6,5.00,0.00,21.9,23.0,00.0,30.8,23.8,05.6,0000.0,0001.42,0000.59,0000.37
2021-12-18 02:31:00,,0826.5,4.99,0.00,22.0,23.0,00.0,30.8,23.9,05.4,0000.0,0001.48,0000.60,0000.38
2021-12-18 02:32:00,,0826.6,5.01,0.00,22.0,22.5,00.0,30.8,23.8,05.4,0000.0,0001.47,0000.59,0000.38
2021-12-18 02:33:00,,0826.6,5.00,0.00,21.9,22.1,00.0,30.8,23.6,05.4,0000.0,0001.49,0000.59,0000.38
2021-12-18 02:34:00,,0826.7,5.01,0.00,21.9,21.8,00.0,30.8,23.5,05.5,0000.0,0001.54,0000.62,0000.38
2021-12-18 02:35:00,,0826.7,4.99,0.00,21.8,21.6,00.0,30.8,23.4,05.5,0000.0,0001.37,0000.62,0000.38
2021-12-18 02:36:00,,0826.6,5.01,0.00,21.8,21.4,00.0,30.8,23.3,05.5,0000.0,0001.26,0000.61,0000.37
2021-12-18 02:37:00,,0826.7,5.01,0.00,21.8,21.2,00.0,30.8,23.3,05.4,0000.0,0001.37,0000.61,0000.37
2021-12-18 02:38:00,,0826.7,4.99,0.00,21.8,21.1,00.0,30.8,23.3,05.4,0000.0,0001.30,0000.58,0000.37
2021-12-18 02:39:00,,0826.7,4.99,0.00,21.7,21.0,00.0,30.8,23.3,05.5,0000.0,0001.25,0000.57,0000.37
2021-12-18 02:40:00,,0826.7,4.99,0.00,21.7,21.0,00.0,30.8,23.3,05.6,0000.0,0001.35,0000.58,0000.38
2021-12-18 02:41:00,,0826.7,5.01,0.00,21.7,21.0,00.0,30.8,23.2,05.6,0000.0,0001.36,0000.58,0000.39
2021-12-18 02:42:00,,0826.7,4.99,0.00,21.7,21.0,00.0,30.8,23.2,05.8,0000.0,0001.31,0000.59,0000.41
2021-12-18 02:43:00,,0826.7,5.00,0.00,21.7,21.3,00.0,30.8,23.4,05.9,0000.0,0001.34,0000.64,0000.43
2021-12-18 02:44:00,,0826.7,5.00,0.00,21.8,22.2,00.0,30.8,23.7,05.8,0000.0,0001.39,0000.66,0000.44
2021-12-18 02:45:00,,0826.8,5.00,0.00,22.0,23.0,00.0,30.9,24.0,05.8,0000.0,0001.38,0000.66,0000.46
2021-12-18 02:46:00,,0826.8,5.00,0.00,22.1,23.0,00.0,30.9,24.0,05.9,0000.0,0001.36,0000.65,0000.47
2021-12-18 02:47:00,,0826.9,4.99,0.00,22.2,22.7,00.0,30.9,24.0,06.1,0000.0,0001.56,0000.67,0000.49
2021-12-18 02:48:00,,0827.0,5.01,0.00,22.1,22.4,00.0,31.0,23.9,06.3,0000.0,0001.44,0000.68,0000.50
2021-12-18 02:49:00,,0827.0,5.00,0.00,22.1,22.2,00.0,31.0,23.8,06.3,0000.0,0001.69,0000.74,0000.52
2021-12-18 02:50:00,,0826.9,5.01,0.00,22.1,22.0,00.0,31.0,23.8,06.5,0000.0,0002.47,0000.79,0000.55
2021-12-18 02:51:00,,0827.1,4.99,0.00,22.1,21.9,00.0,31.0,23.7,06.6,0000.0,0002.49,0000.84,0000.58
2021-12-18 02:52:00,,0827.0,5.01,0.00,22.1,21.8,00.0,31.0,23.7,06.7,0000.0,0002.77,0000.91,0000.61
2021-12-18 02:53:00,,0827.2,4.99,0.00,22.1,21.7,00.0,31.0,23.7,06.8,0000.0,0003.35,0000.98,0000.64
2021-12-18 02:54:00,,0827.1,5.00,0.00,22.1,21.6,00.0,31.0,23.7,06.9,0000.0,0003.43,0001.01,0000.66
2021-12-18 02:55:00,,0827.2,5.00,0.00,22.0,21.5,00.0,31.0,23.7,07.0,0000.0,0003.43,0001.02,0000.68
2021-12-18 02:56:00,,0827.1,4.99,0.00,22.0,21.4,00.0,31.0,23.7,07.0,0000.0,0003.62,0001.10,0000.71
2021-12-18 02:57:00,,0827.2,5.01,0.00,22.0,21.4,00.0,31.0,23.6,07.0,0000.0,0003.83,0001.18,0000.74
2021-12-18 02:58:00,,0827.3,5.00,0.00,22.0,21.4,00.0,31.0,23.6,07.0,0000.0,0003.60,0001.18,0000.76
2021-12-18 02:59:00,,0827.3,4.99,0.00,22.0,21.3,00.0,31.0,23.6,06.9,0000.0,0004.58,0001.25,0000.79
